FW3135 Weather Reports


time (UTC)temp
C
wind
direction
speed
KPH
gust
KPH
rain 1hr
cm
rain 24hr
cm
rain mn
cm
humidity
%
barometer
mb
20260906154442 30 360 16.1 24.1 0.00 0.00 0.00 50 1022.5
20260906153825 30 70 12.9 24.1 0.00 0.00 0.00 52 1022.4
20260906153321 30 360 11.3 25.7 0.00 0.00 0.00 51 1022.4
20260906152842 30 360 11.3 25.7 0.00 0.00 0.00 53 1022.4
20260906152321 30 348 8.0 20.9 0.00 0.00 0.00 53 1022.5
20260906151900 30 65 9.7 29.0 0.00 0.00 0.00 54 1022.4
20260906151323 30 348 17.7 29.0 0.00 0.00 0.00 54 1022.5
20260906150815 30 65 12.9 25.7 0.00 0.00 0.00 54 1022.5
20260906150329 30 347 12.9 25.7 0.00 0.00 0.00 55 1022.5
20260906145816 29 50 9.7 29.0 0.00 0.00 0.00 56 1022.6
20260906145327 29 360 16.1 29.0 0.00 0.00 0.00 55 1022.6
20260906144814 29 360 14.5 24.1 0.00 0.00 0.00 55 1022.7
20260906144325 29 360 14.5 22.5 0.00 0.00 0.00 55 1022.8
20260906143837 29 42 12.9 27.4 0.00 0.00 0.00 56 1022.7
20260906143317 29 355 12.9 25.7 0.00 0.00 0.00 56 1022.8
20260906142814 29 360 6.4 27.4 0.00 0.00 0.00 56 1022.9
20260906142339 29 59 14.5 27.4 0.00 0.00 0.00 56 1022.8
20260906141813 29 32 11.3 29.0 0.00 0.00 0.00 56 1022.9
20260906141337 29 346 16.1 29.0 0.00 0.00 0.00 55 1022.9
20260906140828 29 338 14.5 25.7 0.00 0.00 0.00 55 1022.9
20260906140330 29 80 14.5 25.7 0.00 0.00 0.00 56 1022.9
20260906135834 29 39 16.1 27.4 0.00 0.00 0.00 57 1022.9
20260906135328 29 59 12.9 27.4 0.00 0.00 0.00 57 1022.9
20260906134832 30 42 14.5 22.5 0.00 0.00 0.00 55 1022.9
20260906134328 29 66 12.9 22.5 0.00 0.00 0.00 56 1023.0
20260906133823 29 61 9.7 24.1 0.00 0.00 0.00 56 1023.0
20260906133344 29 71 9.7 24.1 0.00 0.00 0.00 57 1023.0
20260906132316 29 72 8.0 22.5 0.00 0.00 0.00 57 1022.9
20260906131835 29 42 9.7 22.5 0.00 0.00 0.00 57 1023.0
20260906131331 29 79 6.4 19.3 0.00 0.00 0.00 58 1023.0
20260906130834 29 96 8.0 19.3 0.00 0.00 0.00 57 1023.0
20260906130351 29 96 8.0 19.3 0.00 0.00 0.00 57 1023.1
20260906125844 29 360 8.0 20.9 0.00 0.00 0.00 58 1023.0
20260906125323 28 68 9.7 19.3 0.00 0.00 0.00 58 1022.9
20260906124854 28 38 9.7 20.9 0.00 0.00 0.00 59 1022.9
20260906124317 28 42 9.7 20.9 0.00 0.00 0.00 60 1023.0
20260906123816 28 42 11.3 20.9 0.00 0.00 0.00 61 1023.0
20260906123338 27 74 6.4 19.3 0.00 0.00 0.00 63 1023.0
20260906122813 27 229 3.2 8.0 0.00 0.00 0.00 64 1023.1
20260906122334 27 240 3.2 14.5 0.00 0.00 0.00 64 1023.1
20260906121835 27 360 6.4 14.5 0.00 0.00 0.00 65 1023.1
20260906121329 26 245 4.8 8.0 0.00 0.00 0.00 64 1023.2
20260906120832 27 238 3.2 14.5 0.00 0.00 0.00 64 1023.1
20260906120329 27 261 3.2 14.5 0.00 0.00 0.00 62 1023.1
20260906115829 27 297 4.8 14.5 0.00 0.00 0.00 62 1023.2
20260906115337 28 360 4.8 14.5 0.00 0.00 0.00 61 1023.3
20260906114846 27 49 3.2 12.9 0.00 0.00 0.00 61 1023.3
20260906114329 27 260 3.2 17.7 0.00 0.00 0.00 63 1023.4
20260906113825 27 320 6.4 19.3 0.00 0.00 0.00 61 1023.4
20260906111840 27 38 11.3 19.3 0.00 0.00 0.00 63 1023.4
20260906110845 27 360 9.7 20.9 0.00 0.00 0.00 62 1023.4
20260906105859 27 57 8.0 16.1 0.00 0.00 0.00 64 1023.4
20260906105330 27 331 6.4 14.5 0.00 0.00 0.00 65 1023.5
20260906104841 26 105 4.8 16.1 0.00 0.00 0.00 66 1023.4
20260906104335 26 350 4.8 17.7 0.00 0.00 0.00 67 1023.5
20260906103827 26 74 8.0 16.1 0.00 0.00 0.00 68 1023.5
20260906103324 26 360 9.7 19.3 0.00 0.00 0.00 69 1023.4
20260906102325 26 45 6.4 19.3 0.00 0.00 0.00 71 1023.6
20260906101815 25 105 6.4 20.9 0.00 0.00 0.00 73 1023.5
20260906101315 25 59 8.0 19.3 0.00 0.00 0.00 73 1023.5
20260906100854 25 323 9.7 19.3 0.00 0.00 0.00 74 1023.5
20260906100327 24 360 1.6 6.4 0.00 0.00 0.00 75 1023.5
20260906095830 23 261 0.0 6.4 0.00 0.00 0.00 75 1023.5
20260906095341 23 261 3.2 6.4 0.00 0.00 0.00 76 1023.4
20260906092828 22 254 4.8 6.4 0.00 0.00 0.00 80 1023.5
20260906092327 22 257 3.2 6.4 0.00 0.00 0.00 81 1023.2
20260906091836 21 259 3.2 6.4 0.00 0.00 0.00 81 1023.1
20260906091318 21 252 3.2 6.4 0.00 0.00 0.00 81 1023.2
20260906090822 21 244 1.6 4.8 0.00 0.00 0.00 81 1023.0
20260906085820 21 244 3.2 6.4 0.00 0.00 0.00 80 1023.0
20260906085325 21 240 3.2 6.4 0.00 0.00 0.00 80 1022.9
20260906084830 21 265 3.2 6.4 0.00 0.00 0.00 79 1022.9
20260906084324 22 270 4.8 6.4 0.00 0.00 0.00 78 1023.0
20260906083838 22 279 1.6 4.8 0.00 0.00 0.00 78 1022.9
20260906083313 22 290 3.2 4.8 0.00 0.00 0.00 77 1022.9
20260906082901 22 360 1.6 4.8 0.00 0.00 0.00 76 1022.9
20260906082325 23 268 0.0 0.0 0.00 0.00 0.00 76 1022.9
20260906081820 23 282 0.0 0.0 0.00 0.00 0.00 78 1022.9
20260906081319 23 282 0.0 0.0 0.00 0.00 0.00 79 1022.9
20260906080838 23 282 0.0 0.0 0.00 0.00 0.00 80 1022.9
20260906080329 22 282 0.0 0.0 0.00 0.00 0.00 80 1023.0
20260906075831 22 282 0.0 0.0 0.00 0.00 0.00 80 1022.8
20260906075327 22 282 0.0 0.0 0.00 0.00 0.00 80 1022.8
20260906074826 22 284 0.0 0.0 0.00 0.00 0.00 80 1022.8
20260906063328 20 105 3.2 12.9 0.00 0.00 0.00 87 1022.2
20260906062336 20 40 6.4 12.9 0.00 0.00 0.00 87 1022.2
20260906060835 20 51 6.4 14.5 0.00 0.00 0.00 87 1022.0
20260906052411 20 76 6.4 17.7 0.00 0.00 0.00 87 1021.7
20260906044848 20 360 9.7 16.1 0.00 0.00 0.00 85 1021.6
20260906044331 20 360 8.0 16.1 0.00 0.00 0.00 85 1021.6
20260906043827 20 78 6.4 12.9 0.00 0.00 0.00 85 1021.6
20260906043526 20 95 4.8 14.5 0.00 0.00 0.00 85 1021.6
20260906043401 20 95 4.8 14.5 0.00 0.00 0.00 85 1021.6
20260906023845 21 194 0.0 4.8 0.00 0.00 0.00 82 1021.2
20260906023321 21 194 1.6 6.4 0.00 0.00 0.00 83 1021.2
20260906022823 21 194 3.2 6.4 0.00 0.00 0.00 83 1021.3
20260906022317 21 190 1.6 4.8 0.00 0.00 0.00 82 1021.3
20260906021819 21 244 0.0 4.8 0.00 0.00 0.00 82 1021.4
20260906021315 21 244 0.0 4.8 0.00 0.00 0.00 82 1021.5
20260906020839 21 272 0.0 3.2 0.00 0.00 0.00 82 1021.5
20260906014912 21 272 0.0 1.6 0.00 0.00 0.00 81 1021.5
20260906014323 21 272 0.0 1.6 0.00 0.00 0.00 81 1021.6
20260906013834 21 272 0.0 1.6 0.00 0.00 0.00 81 1021.6
20260906013320 21 272 0.0 4.8 0.00 0.00 0.00 81 1021.6
20260906012335 21 360 1.6 4.8 0.00 0.00 0.00 81 1021.7
20260906001904 21 273 0.0 3.2 0.00 0.00 0.00 86 1022.2
20260906000929 21 275 1.6 4.8 0.00 0.00 0.00 86 1022.3
20260905225923 21 267 0.0 4.8 0.00 0.00 0.00 84 1022.2
20260905172321 28 264 3.2 12.9 0.00 0.00 0.00 58 1019.9
20260905171325 28 360 6.4 9.7 0.00 0.00 0.00 55 1019.9
20260905170833 28 360 4.8 9.7 0.00 0.00 0.00 54 1019.8
20260905170323 28 360 4.8 9.7 0.00 0.00 0.00 57 1019.8
20260905165833 27 360 4.8 14.5 0.00 0.00 0.00 59 1019.7
20260905165347 27 360 4.8 14.5 0.00 0.00 0.00 62 1019.8
20260905164836 27 360 4.8 12.9 0.00 0.00 0.00 66 1019.8
20260905163831 26 360 8.0 16.1 0.00 0.00 0.00 67 1019.6
20260905163329 26 360 4.8 12.9 0.00 0.00 0.00 70 1019.7
20260905162834 26 360 3.2 14.5 0.00 0.00 0.00 70 1019.7
20260905162314 26 360 4.8 9.7 0.00 0.00 0.00 68 1019.5
20260905161855 27 360 4.8 6.4 0.00 0.00 0.00 66 1019.4
20260905161330 27 360 3.2 6.4 0.00 0.00 0.00 66 1019.3
20260905160833 27 242 1.6 6.4 0.00 0.00 0.00 65 1019.4
20260905160328 27 360 3.2 12.9 0.00 0.00 0.00 64 1019.4
20260905155829 28 360 6.4 12.9 0.00 0.00 0.00 61 1019.3
20260905155332 28 360 8.0 12.9 0.00 0.00 0.00 57 1019.3
20260905154847 29 360 6.4 12.9 0.00 0.00 0.00 57 1019.3